FW8459 Weather Reports


Display with metric or nautical units.
time (UTC)temp
F
wind
direction
speed
MPH
gust
MPH
rain 1hr
in
rain 24hr
in
rain mn
in
humidity
%
barometer
mb
20260507195712 41 211 3.0 5.0 0.00 0.00 0.00 89 1022.5
20260507195210 41 244 4.0 6.0 0.00 0.00 0.00 88 1022.3
20260507194707 41 205 2.0 2.0 0.00 0.00 0.00 89 1022.6
20260507194203 41 220 3.0 5.0 0.00 0.00 0.00 89 1022.4
20260507193700 41 237 1.0 2.0 0.00 0.00 0.00 89 1022.4
20260507193157 41 187 4.0 5.0 0.00 0.00 0.00 89 1022.3
20260507192652 41 266 3.0 5.0 0.00 0.00 0.00 89 1022.4
20260507192150 41 210 2.0 2.0 0.00 0.00 0.00 89 1022.2
20260507191645 41 172 4.0 5.0 0.00 0.00 0.00 89 1022.4
20260507191142 41 198 3.0 3.0 0.00 0.00 0.00 89 1022.2
20260507190639 41 239 0.0 0.0 0.00 0.00 0.00 89 1022.0
20260507190138 41 239 0.0 1.0 0.00 0.00 0.00 89 1022.1
20260507185636 41 207 1.0 1.0 0.00 0.00 0.00 89 1022.3
20260507185132 41 234 2.0 2.0 0.00 0.00 0.00 89 1022.4
20260507184630 41 245 2.0 3.0 0.00 0.00 0.00 90 1022.1
20260507184128 41 251 1.0 2.0 0.00 0.00 0.00 90 1022.2
20260507183624 41 201 3.0 3.0 0.00 0.00 0.00 91 1022.1
20260507183121 40 182 1.0 2.0 0.00 0.00 0.00 91 1022.1
20260507182618 40 239 0.0 0.0 0.00 0.00 0.00 92 1022.1
20260507182114 39 251 0.0 0.0 0.00 0.00 0.00 92 1021.9
20260507181610 39 225 0.0 0.0 0.00 0.00 0.00 93 1021.8
20260507181107 39 232 1.0 1.0 0.00 0.00 0.00 93 1021.9
20260507180603 39 242 0.0 0.0 0.00 0.00 0.00 93 1021.6
20260507180101 39 234 0.0 1.0 0.00 0.00 0.00 93 1021.6
20260507175556 38 246 0.0 0.0 0.00 0.00 0.00 93 1021.8
20260507175054 38 246 0.0 0.0 0.00 0.00 0.00 93 1021.6
20260507174551 37 241 0.0 0.0 0.00 0.00 0.00 93 1022.0
20260507174049 37 337 3.0 3.0 0.00 0.00 0.00 94 1022.1
20260507173545 37 261 1.0 1.0 0.00 0.00 0.00 94 1022.1
20260507173043 37 261 1.0 1.0 0.00 0.00 0.00 94 1022.1
20260507172538 0 0.0 0.0 0.00 0.00 0.00 1022.2
20260507172036 0 0.0 0.0 0.00 0.00 0.00 1022.1
20260507171531 0 0.0 0.0 0.00 0.00 0.00 1022.1
20260507171028 0 0.0 0.0 0.00 0.00 0.00 1022.2
20260507170525 0 0.0 0.0 0.00 0.00 0.00 1022.1
20260507170022 0 0.0 0.0 0.00 0.00 0.00 1022.3
20260507165518 0 0.0 0.0 0.00 0.00 0.00 1022.2
20260507165014 0 0.0 0.0 0.00 0.00 0.00 1022.4
20260507164511 0 0.0 0.0 0.00 0.00 0.00 1022.2
20260507164008 36 239 0.0 0.0 0.00 0.00 0.00 92 1022.2
20260507163505 36 239 0.0 0.0 0.00 0.00 0.00 92 1022.1
20260507163003 0 0.0 0.0 0.00 0.00 0.00 1022.3
20260507162457 0 0.0 0.0 0.00 0.00 0.00 1022.3
20260507161954 0 0.0 0.0 0.00 0.00 0.00 1022.0
20260507161451 37 250 0.0 0.0 0.00 0.00 0.00 90 1022.2
20260507160948 37 250 0.0 0.0 0.00 0.00 0.00 90 1022.1
20260507160444 0 0.0 0.0 0.00 0.00 0.00 1022.3
20260507155939 0 0.0 0.0 0.00 0.00 0.00 1022.4
20260507155436 0 0.0 0.0 0.00 0.00 0.00 1022.4
20260507154933 0 0.0 0.0 0.00 0.00 0.00 1022.2
20260507154429 0 0.0 0.0 0.00 0.00 0.00 1022.3
20260507153927 0 0.0 0.0 0.00 0.00 0.00 1022.4
20260507153423 0 0.0 0.0 0.00 0.00 0.00 1022.3
20260507152919 36 242 0.0 1.0 0.00 0.00 0.00 90 1022.6
20260507152416 36 242 0.0 1.0 0.00 0.00 0.00 90 1022.7
20260507151912 36 237 0.0 0.0 0.00 0.00 0.00 89 1022.6
20260507151409 36 237 0.0 0.0 0.00 0.00 0.00 89 1022.6
20260507150906 0 0.0 0.0 0.00 0.00 0.00 1022.6
20260507150402 0 0.0 0.0 0.00 0.00 0.00 1022.5
20260507145858 0 0.0 0.0 0.00 0.00 0.00 1022.4
20260507145354 0 0.0 0.0 0.00 0.00 0.00 1022.6
20260507144852 0 0.0 0.0 0.00 0.00 0.00 1022.6
20260507144349 0 0.0 0.0 0.00 0.00 0.00 1022.7
20260507143846 0 0.0 0.0 0.00 0.00 0.00 1022.7
20260507143343 0 0.0 0.0 0.00 0.00 0.00 1022.5
20260507142839 0 0.0 0.0 0.00 0.00 0.00 1022.5
20260507142336 0 0.0 0.0 0.00 0.00 0.00 1022.7
20260507141832 0 0.0 0.0 0.00 0.00 0.00 1022.6
20260507141329 0 0.0 0.0 0.00 0.00 0.00 1022.6
20260507140825 0 0.0 0.0 0.00 0.00 0.00 1022.8
20260507140322 38 239 0.0 0.0 0.00 0.00 0.00 85 1022.8
20260507135820 38 239 0.0 0.0 0.00 0.00 0.00 85 1022.9
20260507135317 38 239 0.0 0.0 0.00 0.00 0.00 85 1022.8
20260507134814 37 230 0.0 1.0 0.00 0.00 0.00 85 1022.9
20260507134310 37 230 0.0 1.0 0.00 0.00 0.00 85 1022.6
20260507133806 37 230 0.0 1.0 0.00 0.00 0.00 85 1022.7
20260507133302 0 0.0 0.0 0.00 0.00 0.00 1022.8
20260507132800 0 0.0 0.0 0.00 0.00 0.00 1022.7
20260507132256 0 0.0 0.0 0.00 0.00 0.00 1022.7
20260507131753 0 0.0 0.0 0.00 0.00 0.00 1022.8
20260507131251 0 0.0 0.0 0.00 0.00 0.00 1022.7
20260507130747 0 0.0 0.0 0.00 0.00 0.00 1022.8
20260507130245 0 0.0 0.0 0.00 0.00 0.00 1022.6
20260507125743 0 0.0 0.0 0.00 0.00 0.00 1022.9
20260507125241 39 213 3.0 3.0 0.00 0.00 0.00 83 1022.7
20260507124737 39 213 3.0 3.0 0.00 0.00 0.00 83 1022.9
20260507124234 39 227 2.0 2.0 0.00 0.00 0.00 83 1022.6
20260507123733 39 227 2.0 2.0 0.00 0.00 0.00 83 1022.7
20260507123230 39 219 2.0 2.0 0.00 0.00 0.00 83 1022.7
20260507122725 39 219 2.0 2.0 0.00 0.00 0.00 83 1022.9
20260507122221 39 196 4.0 6.0 0.00 0.00 0.00 82 1022.7
20260507121716 0 0.0 0.0 0.00 0.00 0.00 1022.7
20260507121213 0 0.0 0.0 0.00 0.00 0.00 1022.6
20260507120709 0 0.0 0.0 0.00 0.00 0.00 1022.6
20260507120206 0 0.0 0.0 0.00 0.00 0.00 1022.6
20260507115702 0 0.0 0.0 0.00 0.00 0.00 1022.8
20260507115158 0 0.0 0.0 0.00 0.00 0.00 1022.5
20260507114654 0 0.0 0.0 0.00 0.00 0.00 1022.7
20260507114152 0 0.0 0.0 0.00 0.00 0.00 1022.7
20260507113649 0 0.0 0.0 0.00 0.00 0.00 1022.6
20260507113145 0 0.0 0.0 0.00 0.00 0.00 1022.8
20260507112643 0 0.0 0.0 0.00 0.00 0.00 1022.7
20260507112140 0 0.0 0.0 0.00 0.00 0.00 1022.6
20260507111637 0 0.0 0.0 0.00 0.00 0.00 1022.6
20260507111133 0 0.0 0.0 0.00 0.00 0.00 1022.7
20260507110630 0 0.0 0.0 0.00 0.00 0.00 1022.7
20260507110127 0 0.0 0.0 0.00 0.00 0.00 1022.7
20260507105624 0 0.0 0.0 0.00 0.00 0.00 1022.4
20260507105119 0 0.0 0.0 0.00 0.00 0.00 1022.5
20260507104617 0 0.0 0.0 0.00 0.00 0.00 1022.4
20260507104113 0 0.0 0.0 0.00 0.00 0.00 1022.4
20260507103609 0 0.0 0.0 0.00 0.00 0.00 1022.4
20260507103106 0 0.0 0.0 0.00 0.00 0.00 1022.6
20260507102603 0 0.0 0.0 0.00 0.00 0.00 1022.4
20260507102059 0 0.0 0.0 0.00 0.00 0.00 1022.4
20260507101554 0 0.0 0.0 0.00 0.00 0.00 1022.5
20260507101051 41 163 3.0 7.0 0.00 0.02 0.02 74 1022.3
20260507100548 41 163 3.0 7.0 0.00 0.02 0.02 74 1022.2
20260507100047 41 214 3.0 5.0 0.00 0.02 0.02 75 1022.2
20260507095544 0 0.0 0.0 0.00 0.00 0.00 1021.9
20260507095041 0 0.0 0.0 0.00 0.00 0.00 1022.3
20260507094537 0 0.0 0.0 0.00 0.00 0.00 1022.2
20260507094034 0 0.0 0.0 0.00 0.00 0.00 1022.2
20260507093531 0 0.0 0.0 0.00 0.00 0.00 1022.2
20260507093030 0 0.0 0.0 0.00 0.00 0.00 1022.3
20260507092526 0 0.0 0.0 0.00 0.00 0.00 1022.3
20260507092023 0 0.0 0.0 0.00 0.00 0.00 1022.2
20260507091520 0 0.0 0.0 0.00 0.00 0.00 1022.1
20260507091015 0 0.0 0.0 0.00 0.00 0.00 1021.9
20260507090511 0 0.0 0.0 0.00 0.00 0.00 1021.8
20260507090009 0 0.0 0.0 0.00 0.00 0.00 1021.9
20260507085506 0 0.0 0.0 0.00 0.00 0.00 1021.8
20260507085002 0 0.0 0.0 0.00 0.00 0.00 1021.5
20260507084459 0 0.0 0.0 0.00 0.00 0.00 1021.6
20260507083955 0 0.0 0.0 0.00 0.00 0.00 1021.4
20260507083452 0 0.0 0.0 0.00 0.00 0.00 1021.4
20260507082948 0 0.0 0.0 0.00 0.00 0.00 1021.2
20260507082445 0 0.0 0.0 0.00 0.00 0.00 1021.3
20260507081942 42 239 5.0 7.0 0.00 0.02 0.02 72 1021.2
20260507081438 42 239 5.0 7.0 0.00 0.02 0.02 72 1021.2
20260507080935 42 239 5.0 7.0 0.00 0.02 0.02 72 1021.1
20260507080431 0 0.0 0.0 0.00 0.00 0.00 1020.7
20260507075926 0 0.0 0.0 0.00 0.00 0.00 1020.8
20260507075423 0 0.0 0.0 0.00 0.00 0.00 1021.0
20260507074920 0 0.0 0.0 0.00 0.00 0.00 1020.9
20260507074417 0 0.0 0.0 0.00 0.00 0.00 1020.8
20260507073914 0 0.0 0.0 0.00 0.00 0.00 1020.7
20260507073410 43 206 2.0 2.0 0.00 0.02 0.02 69 1020.6
20260507072907 43 206 2.0 2.0 0.00 0.02 0.02 69 1020.5
20260507072405 43 206 2.0 2.0 0.00 0.02 0.02 69 1020.4
20260507071902 0 0.0 0.0 0.00 0.00 0.00 1020.3
20260507071359 0 0.0 0.0 0.00 0.00 0.00 1020.4
20260507070855 0 0.0 0.0 0.00 0.00 0.00 1020.3
20260507070353 0 0.0 0.0 0.00 0.00 0.00 1020.0
20260507065850 45 304 3.0 3.0 0.00 0.02 0.02 66 1020.2
20260507065346 45 304 3.0 3.0 0.00 0.02 0.02 66 1020.0
20260507064843 45 304 3.0 3.0 0.00 0.02 0.02 66 1019.7
20260507064342 0 0.0 0.0 0.00 0.00 0.00 1019.6
20260507063839 0 0.0 0.0 0.00 0.00 0.00 1019.8
20260507063336 0 0.0 0.0 0.00 0.00 0.00 1019.7
20260507062832 0 0.0 0.0 0.00 0.00 0.00 1019.7
20260507062329 0 0.0 0.0 0.00 0.00 0.00 1019.4
20260507061828 0 0.0 0.0 0.00 0.00 0.00 1019.4
20260507061325 0 0.0 0.0 0.00 0.00 0.00 1019.6
20260507060824 0 0.0 0.0 0.00 0.00 0.00 1019.6
20260507060320 0 0.0 0.0 0.00 0.00 0.00 1019.4
20260507055817 0 0.0 0.0 0.00 0.00 0.00 1019.6
20260507055312 0 0.0 0.0 0.00 0.00 0.00 1019.5
20260507054808 0 0.0 0.0 0.00 0.00 0.00 1019.5
20260507054305 0 0.0 0.0 0.00 0.00 0.00 1019.4
20260507053802 0 0.0 0.0 0.00 0.00 0.00 1019.6
20260507053300 0 0.0 0.0 0.00 0.00 0.00 1019.5
20260507052759 0 0.0 0.0 0.00 0.00 0.00 1019.2
20260507052254 0 0.0 0.0 0.00 0.00 0.00 1019.2
20260507051753 0 0.0 0.0 0.00 0.00 0.00 1019.4
20260507051250 0 0.0 0.0 0.00 0.00 0.00 1019.0
20260507050746 0 0.0 0.0 0.00 0.00 0.00 1019.0
20260507050243 0 0.0 0.0 0.00 0.00 0.00 1019.1
20260507045740 49 194 8.0 9.0 0.00 0.02 0.02 55 1018.7
20260507045236 49 194 8.0 9.0 0.00 0.02 0.02 55 1018.8
20260507044733 0 0.0 0.0 0.00 0.00 0.00 1019.0
20260507044229 0 0.0 0.0 0.00 0.00 0.00 1019.0
20260507043726 0 0.0 0.0 0.00 0.00 0.00 1019.0
20260507043223 0 0.0 0.0 0.00 0.00 0.00 1018.8
20260507042719 0 0.0 0.0 0.00 0.00 0.00 1019.0
20260507042214 0 0.0 0.0 0.00 0.00 0.00 1018.9
20260507041712 0 0.0 0.0 0.00 0.00 0.00 1018.4
20260507041208 0 0.0 0.0 0.00 0.00 0.00 1018.6
20260507040706 0 0.0 0.0 0.00 0.00 0.00 1018.2
20260507040201 0 0.0 0.0 0.00 0.00 0.00 1018.6
20260507035657 0 0.0 0.0 0.00 0.00 0.00 1018.4
20260507035153 0 0.0 0.0 0.00 0.00 0.00 1018.6
20260507034650 49 208 5.0 7.0 0.00 0.02 0.02 54 1018.4
20260507034148 49 208 5.0 7.0 0.00 0.02 0.02 54 1018.7
20260507033646 49 208 5.0 7.0 0.00 0.02 0.02 54 1018.6
20260507033143 0 0.0 0.0 0.00 0.00 0.00 1018.8
20260507032641 0 0.0 0.0 0.00 0.00 0.00 1018.7
20260507032136 0 0.0 0.0 0.00 0.00 0.00 1018.6
20260507031633 51 226 11.0 16.0 0.00 0.02 0.02 52 1018.7
20260507031130 51 226 11.0 16.0 0.00 0.02 0.02 52 1018.8
20260507030627 51 226 11.0 16.0 0.00 0.02 0.02 52 1018.6
20260507030125 0 0.0 0.0 0.00 0.00 0.00 1018.4
20260507025622 0 0.0 0.0 0.00 0.00 0.00 1018.6
20260507025118 0 0.0 0.0 0.00 0.00 0.00 1018.6
20260507024616 0 0.0 0.0 0.00 0.00 0.00 1018.6
20260507024113 0 0.0 0.0 0.00 0.00 0.00 1018.2
20260507023608 0 0.0 0.0 0.00 0.00 0.00 1018.3
20260507023107 0 0.0 0.0 0.00 0.00 0.00 1018.6
20260507022603 0 0.0 0.0 0.00 0.00 0.00 1018.6
20260507022053 50 222 14.0 17.0 0.00 0.02 0.02 52 1018.4
20260507021549 50 222 14.0 17.0 0.00 0.02 0.02 52 1018.6
20260507021045 0 0.0 0.0 0.00 0.00 0.00 1018.7
20260507020544 0 0.0 0.0 0.00 0.00 0.00 1018.9
20260507020039 0 0.0 0.0 0.00 0.00 0.00 1018.7
20260507015538 0 0.0 0.0 0.00 0.00 0.00 1018.8
20260507015035 49 141 4.0 7.0 0.00 0.02 0.02 60 1018.9
20260507014532 49 141 4.0 7.0 0.00 0.02 0.02 60 1018.9
20260507014027 0 0.0 0.0 0.00 0.00 0.00 1018.7
20260507013524 0 0.0 0.0 0.00 0.00 0.00 1018.9
20260507013022 48 250 6.0 7.0 0.00 0.02 0.02 62 1019.0
20260507012519 48 250 6.0 7.0 0.00 0.02 0.02 62 1018.8
20260507012015 48 250 6.0 7.0 0.00 0.02 0.02 62 1019.1
20260507011512 47 160 8.0 11.0 0.00 0.02 0.02 62 1018.8
20260507011008 47 160 8.0 11.0 0.00 0.02 0.02 62 1018.8
20260507010502 47 160 8.0 11.0 0.00 0.02 0.02 62 1019.1
20260507005959 0 0.0 0.0 0.00 0.00 0.00 1018.9
20260507005456 0 0.0 0.0 0.00 0.00 0.00 1018.7
20260507004953 0 0.0 0.0 0.00 0.00 0.00 1018.6
20260507004449 48 241 4.0 8.0 0.00 0.02 0.02 67 1018.9
20260507003947 48 241 4.0 8.0 0.00 0.02 0.02 67 1018.3
20260507003442 47 226 6.0 9.0 0.00 0.02 0.02 65 1018.4
20260507002938 47 197 4.0 6.0 0.00 0.02 0.02 66 1018.4
20260507002434 47 222 8.0 17.0 0.00 0.02 0.02 66 1018.9
20260507001931 47 243 7.0 14.0 0.00 0.02 0.02 64 1018.8
20260507001428 46 268 2.0 2.0 0.00 0.02 0.02 66 1018.4
20260507000926 48 219 5.0 8.0 0.00 0.02 0.02 70 1018.6
20260507000421 48 233 2.0 3.0 0.00 0.02 0.02 77 1018.6
20260506235917 46 198 8.0 9.0 0.00 0.02 0.02 82 1018.3
20260506235415 46 198 8.0 9.0 0.00 0.02 0.02 82 1018.1
20260506234909 46 198 8.0 9.0 0.00 0.02 0.02 82 1018.3
20260506234408 46 241 6.0 7.0 0.14 0.02 0.02 81 1018.2
20260506233905 45 232 7.0 10.0 0.14 0.02 0.02 81 1018.2
20260506233401 45 207 6.0 10.0 0.00 0.00 0.00 84 1018.2
20260506232858 0 0.0 0.0 0.00 0.00 0.00 1018.0
20260506232354 0 0.0 0.0 0.00 0.00 0.00 1018.2
20260506231850 0 0.0 0.0 0.00 0.00 0.00 1017.9
20260506231348 0 0.0 0.0 0.00 0.00 0.00 1017.9
20260506230845 0 0.0 0.0 0.00 0.00 0.00 1018.0
20260506230342 0 0.0 0.0 0.00 0.00 0.00 1017.9
20260506225838 0 0.0 0.0 0.00 0.00 0.00 1017.8
20260506225336 0 0.0 0.0 0.00 0.00 0.00 1017.6
20260506224832 0 0.0 0.0 0.00 0.00 0.00 1017.6
20260506224330 0 0.0 0.0 0.00 0.00 0.00 1017.3
20260506223826 0 0.0 0.0 0.00 0.00 0.00 1017.2
20260506223321 0 0.0 0.0 0.00 0.00 0.00 1017.2
20260506222819 0 0.0 0.0 0.00 0.00 0.00 1017.1
20260506222314 0 0.0 0.0 0.00 0.00 0.00 1016.8
20260506221812 0 0.0 0.0 0.00 0.00 0.00 1016.7
20260506221309 0 0.0 0.0 0.00 0.00 0.00 1016.6
20260506220807 0 0.0 0.0 0.00 0.00 0.00 1016.7
20260506220302 0 0.0 0.0 0.00 0.00 0.00 1016.8
20260506215759 0 0.0 0.0 0.00 0.00 0.00 1016.8
20260506215255 0 0.0 0.0 0.00 0.00 0.00 1016.6
20260506214750 0 0.0 0.0 0.00 0.00 0.00 1016.7
20260506214248 0 0.0 0.0 0.00 0.00 0.00 1016.5
20260506213746 0 0.0 0.0 0.00 0.00 0.00 1016.7
20260506213243 0 0.0 0.0 0.00 0.00 0.00 1016.6
20260506212740 0 0.0 0.0 0.00 0.00 0.00 1016.5
20260506212236 0 0.0 0.0 0.00 0.00 0.00 1016.6
20260506211731 0 0.0 0.0 0.00 0.00 0.00 1016.5
20260506211228 0 0.0 0.0 0.00 0.00 0.00 1016.6
20260506210725 0 0.0 0.0 0.00 0.00 0.00 1016.5
20260506210222 0 0.0 0.0 0.00 0.00 0.00 1016.5
20260506205719 0 0.0 0.0 0.00 0.00 0.00 1016.5
20260506205214 0 0.0 0.0 0.00 0.00 0.00 1016.6
20260506204712 0 0.0 0.0 0.00 0.00 0.00 1016.5
20260506204209 0 0.0 0.0 0.00 0.00 0.00 1016.3
20260506203707 0 0.0 0.0 0.00 0.00 0.00 1016.5
20260506203203 0 0.0 0.0 0.00 0.00 0.00 1016.4
20260506202701 0 0.0 0.0 0.00 0.00 0.00 1016.3
20260506202157 0 0.0 0.0 0.00 0.00 0.00 1016.5
20260506201655 0 0.0 0.0 0.00 0.00 0.00 1016.5
20260506201150 0 0.0 0.0 0.00 0.00 0.00 1016.4
20260506200647 0 0.0 0.0 0.00 0.00 0.00 1016.5
20260506200144 0 0.0 0.0 0.00 0.00 0.00 1016.3